Time,TemperatureF,DewpointF,PressureIn,WindDirection,WindDirectionDegrees,WindSpeedMPH,WindSpeedGustMPH,Humidity,HourlyPrecipIn,Conditions,Clouds,dailyrainin,SoftwareType,DateUTC
2013-01-23 00:02:00,11.8,2.3,30.31,SSE,168,0.0,2.0,65,0.00,,,0.00,Wunderground v.1.15,2013-01-23 06:02:00,
2013-01-23 00:08:00,11.8,2.3,30.30,SSE,158,1.0,2.0,65,0.00,,,0.00,Wunderground v.1.15,2013-01-23 06:08:00,
2013-01-23 00:14:00,11.8,2.3,30.30,SSE,153,1.0,2.0,65,0.00,,,0.00,Wunderground v.1.15,2013-01-23 06:14:00,
2013-01-23 00:20:00,11.9,2.7,30.30,SSE,161,1.0,2.0,66,0.00,,,0.00,Wunderground v.1.15,2013-01-23 06:20:00,
2013-01-23 00:26:00,12.0,2.8,30.29,South,171,1.0,3.0,66,0.00,,,0.00,Wunderground v.1.15,2013-01-23 06:26:00,
2013-01-23 00:32:00,12.1,3.2,30.29,South,175,1.0,2.0,67,0.00,,,0.00,Wunderground v.1.15,2013-01-23 06:32:00,
2013-01-23 00:38:00,12.2,3.0,30.29,SSE,154,1.0,2.0,66,0.00,,,0.00,Wunderground v.1.15,2013-01-23 06:38:00,
2013-01-23 00:44:00,12.2,3.3,30.29,South,186,1.0,2.0,67,0.00,,,0.00,Wunderground v.1.15,2013-01-23 06:44:00,
2013-01-23 00:50:00,12.3,3.7,30.28,SE,130,1.0,2.0,68,0.00,,,0.00,Wunderground v.1.15,2013-01-23 06:50:00,
2013-01-23 00:56:00,12.5,4.3,30.29,South,170,1.0,2.0,69,0.00,,,0.00,Wunderground v.1.15,2013-01-23 06:56:00,
2013-01-23 01:02:00,12.6,4.3,30.28,SSW,200,1.0,2.0,69,0.00,,,0.00,Wunderground v.1.15,2013-01-23 07:02:00,
2013-01-23 01:08:00,12.7,4.8,30.27,SSE,165,1.0,2.0,70,0.00,,,0.00,Wunderground v.1.15,2013-01-23 07:08:00,
2013-01-23 01:14:00,12.8,4.9,30.27,SSW,198,1.0,2.0,70,0.00,,,0.00,Wunderground v.1.15,2013-01-23 07:14:00,
2013-01-23 01:20:00,12.9,5.0,30.27,SW,222,1.0,1.0,70,0.00,,,0.00,Wunderground v.1.15,2013-01-23 07:20:00,
2013-01-23 01:26:00,13.0,5.0,30.27,South,188,1.0,2.0,70,0.00,,,0.00,Wunderground v.1.15,2013-01-23 07:26:00,
2013-01-23 01:32:00,13.0,5.0,30.27,SSE,158,1.0,2.0,70,0.00,,,0.00,Wunderground v.1.15,2013-01-23 07:32:00,
2013-01-23 01:38:00,13.0,5.0,30.27,SSW,198,1.0,3.0,70,0.00,,,0.00,Wunderground v.1.15,2013-01-23 07:38:00,
2013-01-23 01:44:00,13.0,5.7,30.27,SSW,212,2.0,3.0,72,0.00,,,0.00,Wunderground v.1.15,2013-01-23 07:44:00,
2013-01-23 01:50:00,13.0,5.7,30.27,SSW,208,2.0,2.0,72,0.00,,,0.00,Wunderground v.1.15,2013-01-23 07:50:00,
2013-01-23 01:56:00,13.0,5.7,30.27,ESE,116,1.0,3.0,72,0.00,,,0.00,Wunderground v.1.15,2013-01-23 07:56:00,
2013-01-23 02:02:00,12.9,5.9,30.27,SSE,167,1.0,2.0,73,0.00,,,0.00,Wunderground v.1.15,2013-01-23 08:02:00,
2013-01-23 02:08:00,12.9,5.9,30.27,SSE,158,1.0,2.0,73,0.00,,,0.00,Wunderground v.1.15,2013-01-23 08:08:00,
2013-01-23 02:14:00,12.9,5.9,30.27,SSW,198,2.0,2.0,73,0.00,,,0.00,Wunderground v.1.15,2013-01-23 08:14:00,
2013-01-23 02:20:00,12.9,6.2,30.27,SE,134,2.0,2.0,74,0.00,,,0.00,Wunderground v.1.15,2013-01-23 08:20:00,
2013-01-23 02:26:00,12.9,6.2,30.26,South,183,1.0,4.0,74,0.00,,,0.00,Wunderground v.1.15,2013-01-23 08:26:00,
2013-01-23 02:32:00,12.9,5.9,30.27,SSW,193,2.0,3.0,73,0.00,,,0.00,Wunderground v.1.15,2013-01-23 08:32:00,
2013-01-23 02:38:00,12.9,5.9,30.27,SSW,207,2.0,3.0,73,0.00,,,0.00,Wunderground v.1.15,2013-01-23 08:38:00,
2013-01-23 02:44:00,12.9,5.9,30.27,SSE,160,2.0,2.0,73,0.00,,,0.00,Wunderground v.1.15,2013-01-23 08:44:00,
2013-01-23 02:50:00,13.0,6.0,30.26,SW,235,2.0,2.0,73,0.00,,,0.00,Wunderground v.1.15,2013-01-23 08:50:00,
2013-01-23 02:56:00,13.0,5.7,30.26,SSE,148,2.0,3.0,72,0.00,,,0.00,Wunderground v.1.15,2013-01-23 08:56:00,
2013-01-23 03:02:00,13.1,5.8,30.26,South,180,2.0,2.0,72,0.00,,,0.00,Wunderground v.1.15,2013-01-23 09:02:00,
2013-01-23 03:08:00,13.1,5.8,30.25,SW,225,1.0,4.0,72,0.00,,,0.00,Wunderground v.1.15,2013-01-23 09:08:00,
2013-01-23 03:14:00,13.1,5.5,30.25,SSW,203,2.0,5.0,71,0.00,,,0.00,Wunderground v.1.15,2013-01-23 09:14:00,
2013-01-23 03:20:00,13.2,5.2,30.24,SE,146,2.0,2.0,70,0.00,,,0.00,Wunderground v.1.15,2013-01-23 09:20:00,
2013-01-23 03:26:00,13.2,5.2,30.24,SSE,149,2.0,3.0,70,0.00,,,0.00,Wunderground v.1.15,2013-01-23 09:26:00,
2013-01-23 03:32:00,13.2,5.2,30.24,SW,218,2.0,2.0,70,0.00,,,0.00,Wunderground v.1.15,2013-01-23 09:32:00,
2013-01-23 03:38:00,13.2,4.9,30.24,South,188,3.0,3.0,69,0.00,,,0.00,Wunderground v.1.15,2013-01-23 09:38:00,
2013-01-23 03:44:00,13.3,5.3,30.24,SE,136,2.0,3.0,70,0.00,,,0.00,Wunderground v.1.15,2013-01-23 09:44:00,
2013-01-23 03:50:00,13.3,5.3,30.24,SW,224,2.0,2.0,70,0.00,,,0.00,Wunderground v.1.15,2013-01-23 09:50:00,
2013-01-23 03:56:00,13.4,5.4,30.23,SSE,165,2.0,3.0,70,0.00,,,0.00,Wunderground v.1.15,2013-01-23 09:56:00,
2013-01-23 04:02:00,13.4,5.1,30.23,South,186,2.0,2.0,69,0.00,,,0.00,Wunderground v.1.15,2013-01-23 10:02:00,
2013-01-23 04:08:00,13.4,5.1,30.23,SSW,204,2.0,2.0,69,0.00,,,0.00,Wunderground v.1.15,2013-01-23 10:08:00,
2013-01-23 04:14:00,13.5,5.2,30.22,SSW,192,2.0,3.0,69,0.00,,,0.00,Wunderground v.1.15,2013-01-23 10:14:00,
2013-01-23 04:20:00,13.6,5.6,30.22,SSW,192,1.0,2.0,70,0.00,,,0.00,Wunderground v.1.15,2013-01-23 10:20:00,
2013-01-23 04:26:00,13.6,5.6,30.22,SSE,165,1.0,2.0,70,0.00,,,0.00,Wunderground v.1.15,2013-01-23 10:26:00,
2013-01-23 04:32:00,13.7,5.7,30.22,SSW,194,1.0,2.0,70,0.00,,,0.00,Wunderground v.1.15,2013-01-23 10:32:00,
2013-01-23 04:38:00,13.7,5.4,30.22,South,176,1.0,3.0,69,0.00,,,0.00,Wunderground v.1.15,2013-01-23 10:38:00,
2013-01-23 04:44:00,13.7,5.4,30.21,WSW,245,2.0,3.0,69,0.00,,,0.00,Wunderground v.1.15,2013-01-23 10:44:00,
2013-01-23 04:50:00,13.8,5.5,30.21,South,176,2.0,3.0,69,0.00,,,0.00,Wunderground v.1.15,2013-01-23 10:50:00,
2013-01-23 04:56:00,13.9,5.6,30.21,South,170,2.0,4.0,69,0.00,,,0.00,Wunderground v.1.15,2013-01-23 10:56:00,
2013-01-23 05:02:00,13.9,5.6,30.20,SSW,198,2.0,3.0,69,0.00,,,0.00,Wunderground v.1.15,2013-01-23 11:02:00,
2013-01-23 05:08:00,14.0,5.7,30.20,SSE,153,2.0,3.0,69,0.00,,,0.00,Wunderground v.1.15,2013-01-23 11:08:00,
2013-01-23 05:14:00,14.0,5.7,30.20,SSW,200,2.0,4.0,69,0.00,,,0.00,Wunderground v.1.15,2013-01-23 11:14:00,
2013-01-23 05:20:00,14.1,5.8,30.20,SSE,152,2.0,3.0,69,0.00,,,0.00,Wunderground v.1.15,2013-01-23 11:20:00,
2013-01-23 05:26:00,14.1,5.8,30.20,SSW,193,2.0,3.0,69,0.00,,,0.00,Wunderground v.1.15,2013-01-23 11:26:00,
2013-01-23 05:32:00,14.2,6.2,30.20,SSW,194,1.0,2.0,70,0.00,,,0.00,Wunderground v.1.15,2013-01-23 11:32:00,
2013-01-23 05:38:00,14.3,6.3,30.20,South,179,1.0,2.0,70,0.00,,,0.00,Wunderground v.1.15,2013-01-23 11:38:00,
2013-01-23 05:44:00,14.3,6.3,30.20,South,172,2.0,4.0,70,0.00,,,0.00,Wunderground v.1.15,2013-01-23 11:44:00,
2013-01-23 05:50:00,14.3,6.3,30.19,SSW,201,3.0,3.0,70,0.00,,,0.00,Wunderground v.1.15,2013-01-23 11:50:00,
2013-01-23 05:56:00,14.4,6.7,30.19,South,170,2.0,3.0,71,0.00,,,0.00,Wunderground v.1.15,2013-01-23 11:56:00,
2013-01-23 06:02:00,14.5,6.8,30.19,SSE,157,2.0,3.0,71,0.00,,,0.00,Wunderground v.1.15,2013-01-23 12:02:00,
2013-01-23 06:08:00,14.6,6.9,30.19,SSE,165,2.0,3.0,71,0.00,,,0.00,Wunderground v.1.15,2013-01-23 12:08:00,
2013-01-23 06:14:00,14.7,7.3,30.20,SW,222,2.0,2.0,72,0.00,,,0.00,Wunderground v.1.15,2013-01-23 12:14:00,
2013-01-23 06:20:00,14.7,7.0,30.20,SW,216,2.0,3.0,71,0.00,,,0.00,Wunderground v.1.15,2013-01-23 12:20:00,
2013-01-23 06:26:00,14.8,7.4,30.20,South,180,3.0,3.0,72,0.00,,,0.00,Wunderground v.1.15,2013-01-23 12:26:00,
2013-01-23 06:32:00,14.9,7.5,30.20,South,175,2.0,2.0,72,0.00,,,0.00,Wunderground v.1.15,2013-01-23 12:32:00,
2013-01-23 06:38:00,14.9,7.5,30.20,SW,214,1.0,2.0,72,0.00,,,0.00,Wunderground v.1.15,2013-01-23 12:38:00,
2013-01-23 06:44:00,15.0,7.6,30.19,South,189,1.0,2.0,72,0.00,,,0.00,Wunderground v.1.15,2013-01-23 12:44:00,
2013-01-23 06:50:00,15.1,7.7,30.19,SSW,204,1.0,2.0,72,0.00,,,0.00,Wunderground v.1.15,2013-01-23 12:50:00,
2013-01-23 06:56:00,15.2,8.1,30.19,SSE,163,1.0,2.0,73,0.00,,,0.00,Wunderground v.1.15,2013-01-23 12:56:00,
2013-01-23 07:02:00,15.3,7.9,30.19,South,173,2.0,2.0,72,0.00,,,0.00,Wunderground v.1.15,2013-01-23 13:02:00,
2013-01-23 07:08:00,15.4,8.0,30.19,SSE,168,1.0,4.0,72,0.00,,,0.00,Wunderground v.1.15,2013-01-23 13:08:00,
2013-01-23 07:14:00,15.5,8.1,30.18,SW,219,2.0,3.0,72,0.00,,,0.00,Wunderground v.1.15,2013-01-23 13:14:00,
2013-01-23 07:20:00,15.6,8.2,30.18,SSE,159,2.0,2.0,72,0.00,,,0.00,Wunderground v.1.15,2013-01-23 13:20:00,
2013-01-23 07:26:00,15.8,8.4,30.18,SSE,164,2.0,2.0,72,0.00,,,0.00,Wunderground v.1.15,2013-01-23 13:26:00,
2013-01-23 07:32:00,15.9,8.5,30.18,SSW,205,1.0,3.0,72,0.00,,,0.00,Wunderground v.1.15,2013-01-23 13:32:00,
2013-01-23 07:38:00,15.9,8.5,30.17,South,170,2.0,3.0,72,0.00,,,0.00,Wunderground v.1.15,2013-01-23 13:38:00,
2013-01-23 07:44:00,16.0,8.6,30.17,WSW,238,1.0,2.0,72,0.00,,,0.00,Wunderground v.1.15,2013-01-23 13:44:00,
2013-01-23 07:50:00,16.1,8.7,30.17,South,191,2.0,2.0,72,0.00,,,0.00,Wunderground v.1.15,2013-01-23 13:50:00,
2013-01-23 07:56:00,16.2,8.8,30.17,SSW,195,1.0,2.0,72,0.00,,,0.00,Wunderground v.1.15,2013-01-23 13:56:00,
2013-01-23 08:02:00,16.2,8.8,30.17,South,186,2.0,8.0,72,0.00,,,0.00,Wunderground v.1.15,2013-01-23 14:02:00,
2013-01-23 08:08:00,16.3,8.9,30.17,SW,228,3.0,8.0,72,0.00,,,0.00,Wunderground v.1.15,2013-01-23 14:08:00,
2013-01-23 08:14:00,16.4,8.9,30.17,WSW,248,3.0,5.0,72,0.00,,,0.00,Wunderground v.1.15,2013-01-23 14:14:00,
2013-01-23 08:20:00,16.6,9.1,30.17,SW,232,3.0,6.0,72,0.00,,,0.00,Wunderground v.1.15,2013-01-23 14:20:00,
2013-01-23 08:26:00,16.7,8.9,30.17,SW,232,3.0,6.0,71,0.00,,,0.00,Wunderground v.1.15,2013-01-23 14:26:00,
2013-01-23 08:32:00,16.8,9.0,30.17,SSW,211,4.0,4.0,71,0.00,,,0.00,Wunderground v.1.15,2013-01-23 14:32:00,
2013-01-23 08:38:00,17.0,9.2,30.17,South,179,3.0,4.0,71,0.00,,,0.00,Wunderground v.1.15,2013-01-23 14:38:00,
2013-01-23 08:44:00,17.1,9.3,30.17,SW,217,3.0,3.0,71,0.00,,,0.00,Wunderground v.1.15,2013-01-23 14:44:00,
2013-01-23 08:50:00,17.3,9.5,30.18,WSW,242,2.0,2.0,71,0.00,,,0.00,Wunderground v.1.15,2013-01-23 14:50:00,
2013-01-23 08:56:00,17.4,9.6,30.17,WSW,250,3.0,4.0,71,0.00,,,0.00,Wunderground v.1.15,2013-01-23 14:56:00,
2013-01-23 09:02:00,17.5,9.4,30.18,WSW,239,3.0,6.0,70,0.00,,,0.00,Wunderground v.1.15,2013-01-23 15:02:00,
2013-01-23 09:08:00,17.4,9.3,30.18,WSW,255,4.0,7.0,70,0.00,,,0.00,Wunderground v.1.15,2013-01-23 15:08:00,
2013-01-23 09:14:00,17.6,9.5,30.17,WSW,250,3.0,5.0,70,0.00,,,0.00,Wunderground v.1.15,2013-01-23 15:14:00,
2013-01-23 09:20:00,17.8,9.7,30.17,SW,236,2.0,2.0,70,0.00,,,0.00,Wunderground v.1.15,2013-01-23 15:20:00,
2013-01-23 09:26:00,17.8,9.3,30.17,WSW,238,3.0,5.0,69,0.00,,,0.00,Wunderground v.1.15,2013-01-23 15:26:00,
2013-01-23 09:32:00,17.9,9.4,30.17,SW,215,4.0,6.0,69,0.00,,,0.00,Wunderground v.1.15,2013-01-23 15:32:00,
2013-01-23 09:38:00,18.1,9.6,30.17,West,260,3.0,6.0,69,0.00,,,0.00,Wunderground v.1.15,2013-01-23 15:38:00,
2013-01-23 09:44:00,18.3,9.8,30.17,WNW,302,3.0,3.0,69,0.00,,,0.00,Wunderground v.1.15,2013-01-23 15:44:00,
2013-01-23 09:50:00,18.5,9.4,30.17,WSW,256,3.0,3.0,67,0.00,,,0.00,Wunderground v.1.15,2013-01-23 15:50:00,
2013-01-23 09:56:00,18.5,9.4,30.18,WNW,288,5.0,8.0,67,0.00,,,0.00,Wunderground v.1.15,2013-01-23 15:56:00,
2013-01-23 10:02:00,18.5,9.7,30.18,NW,314,4.0,4.0,68,0.00,,,0.00,Wunderground v.1.15,2013-01-23 16:02:00,
2013-01-23 10:08:00,18.7,9.6,30.18,West,263,3.0,7.0,67,0.00,,,0.00,Wunderground v.1.15,2013-01-23 16:08:00,
2013-01-23 10:14:00,18.9,10.1,30.18,WSW,250,4.0,4.0,68,0.00,,,0.00,Wunderground v.1.15,2013-01-23 16:14:00,
2013-01-23 10:20:00,18.9,9.7,30.18,SW,228,3.0,7.0,67,0.00,,,0.00,Wunderground v.1.15,2013-01-23 16:20:00,
2013-01-23 10:26:00,18.9,9.7,30.18,WSW,242,4.0,8.0,67,0.00,,,0.00,Wunderground v.1.15,2013-01-23 16:26:00,
2013-01-23 10:32:00,19.2,10.0,30.18,West,276,4.0,4.0,67,0.00,,,0.00,Wunderground v.1.15,2013-01-23 16:32:00,
2013-01-23 10:38:00,19.3,10.1,30.18,West,274,3.0,4.0,67,0.00,,,0.00,Wunderground v.1.15,2013-01-23 16:38:00,
2013-01-23 10:44:00,19.5,10.6,30.18,WSW,253,3.0,4.0,68,0.00,,,0.00,Wunderground v.1.15,2013-01-23 16:44:00,
2013-01-23 10:50:00,19.6,10.4,30.18,NW,319,3.0,3.0,67,0.00,,,0.00,Wunderground v.1.15,2013-01-23 16:50:00,
2013-01-23 10:56:00,19.7,10.5,30.18,WNW,290,3.0,4.0,67,0.00,,,0.00,Wunderground v.1.15,2013-01-23 16:56:00,
2013-01-23 11:02:00,19.8,10.6,30.18,NNW,328,4.0,4.0,67,0.00,,,0.00,Wunderground v.1.15,2013-01-23 17:02:00,
2013-01-23 11:08:00,19.8,10.6,30.18,West,267,4.0,6.0,67,0.00,,,0.00,Wunderground v.1.15,2013-01-23 17:08:00,
2013-01-23 11:14:00,19.8,10.3,30.18,NNW,340,4.0,7.0,66,0.00,,,0.00,Wunderground v.1.15,2013-01-23 17:14:00,
2013-01-23 11:20:00,20.2,10.6,30.17,WNW,283,4.0,4.0,66,0.00,,,0.00,Wunderground v.1.15,2013-01-23 17:20:00,
2013-01-23 11:26:00,20.6,10.7,30.17,WNW,293,4.0,5.0,65,0.00,,,0.00,Wunderground v.1.15,2013-01-23 17:26:00,
2013-01-23 11:32:00,20.8,10.9,30.17,NW,309,4.0,4.0,65,0.00,,,0.00,Wunderground v.1.15,2013-01-23 17:32:00,
2013-01-23 11:38:00,21.1,10.8,30.17,NNW,332,5.0,7.0,64,0.00,,,0.00,Wunderground v.1.15,2013-01-23 17:38:00,
2013-01-23 11:44:00,21.6,11.6,30.18,NW,313,4.0,5.0,65,0.00,,,0.00,Wunderground v.1.15,2013-01-23 17:44:00,
2013-01-23 11:50:00,21.8,11.5,30.17,West,270,4.0,4.0,64,0.00,,,0.00,Wunderground v.1.15,2013-01-23 17:50:00,
2013-01-23 11:56:00,22.0,11.7,30.17,WNW,293,4.0,6.0,64,0.00,,,0.00,Wunderground v.1.15,2013-01-23 17:56:00,
2013-01-23 12:02:00,22.3,12.0,30.17,WNW,290,4.0,4.0,64,0.00,,,0.00,Wunderground v.1.15,2013-01-23 18:02:00,
2013-01-23 12:08:00,22.4,12.1,30.16,WNW,300,4.0,6.0,64,0.00,,,0.00,Wunderground v.1.15,2013-01-23 18:08:00,
2013-01-23 12:14:00,23.1,12.4,30.16,NW,312,4.0,4.0,63,0.00,,,0.00,Wunderground v.1.15,2013-01-23 18:14:00,
2013-01-23 12:20:00,23.2,12.1,30.16,WNW,297,3.0,3.0,62,0.00,,,0.00,Wunderground v.1.15,2013-01-23 18:20:00,
2013-01-23 12:26:00,24.0,13.2,30.16,NW,307,3.0,5.0,63,0.00,,,0.00,Wunderground v.1.15,2013-01-23 18:26:00,
2013-01-23 12:32:00,24.3,13.1,30.16,NW,309,3.0,6.0,62,0.00,,,0.00,Wunderground v.1.15,2013-01-23 18:32:00,
2013-01-23 12:38:00,24.4,13.2,30.15,NW,315,3.0,6.0,62,0.00,,,0.00,Wunderground v.1.15,2013-01-23 18:38:00,
2013-01-23 12:44:00,24.9,13.7,30.16,NW,307,3.0,7.0,62,0.00,,,0.00,Wunderground v.1.15,2013-01-23 18:44:00,
2013-01-23 12:50:00,24.9,13.7,30.15,NW,314,4.0,4.0,62,0.00,,,0.00,Wunderground v.1.15,2013-01-23 18:50:00,